(306485) = 1995 TH5 = 1999 TQ151

Discovered at Socorro on 1999-10-07 by LINEAR.

Orbit

Orbit type: Main Belt

Note: WebGL enabled browser required.

epoch2024-03-31.0
epoch JD2460400.5
perihelion date2023-07-26.43089
perihelion JD2460151.93089
argument of perihelion (°)343.50147
ascending node (°)22.42515
inclination (°)13.90166
eccentricity0.1920896
perihelion distance (AU)2.0308967
Tisserand w.r.t. Jupiter3.4
ΔV w.r.t. Earth (km/sec)9.9
semimajor axis (AU)2.5137649
mean anomaly (°)61.47011
mean daily motion (°/day)0.24729590
aphelion distance (AU)2.997
period (years)3.99
P-vector [x]0.99148173
P-vector [y]0.12892966
P-vector [z]-0.01846927
Q-vector [x]-0.09254124
Q-vector [y]0.79712601
Q-vector [z]0.59667934
absolute magnitude16.71
phase slope0.15
uncertainty0
referenceMPEC 2024-E144
observations used761
oppositions12
arc length (days)10374
first opposition used1995
last opposition used2024
residual rms (arc-secs)0.70
perturbers coarse indicatorM-v
perturbers precise indicator003Ek
first observation date used1995-10-15.0
last observation date used2024-03-10.0
computer nameMPCLINUX
JD of orbit computation2456376.465351
perihelion JD uncertainty (days)1.7586E-04
argument of perihelion uncertainty (°)6.8594E-05
ascending node uncertainty (°)1.7801E-05
inclination uncertainty (°)2.9133E-05
eccentricity uncertainty 9.1264E-07
perihelion distance uncertainty (AU)2.2806E-06
Minimum Orbit Intersection Distances (in AU)
for orbit epoch: 2460400.5, reference: E2024-EE4
Mercury1.67009
Venus1.30483
Earth1.03417
Mars0.62477
Jupiter2.46038
Saturn6.45756
Uranus15.4816
Neptune27.5848

Observations

781 total observations over interval: 1995 10 15.32305 – 2024 03 10.160233
These data are available for download (format description).

Date (UT) J2000 RA J2000 Dec Magn Location Ref
1995 10 15.32305 01 29 27.46 +09 31 45.6 18.0 V 691 – Steward Observatory, Kitt Peak-Spacewatch MPC 26055
1995 10 15.34437 01 29 25.85 +09 31 50.9   691 – Steward Observatory, Kitt Peak-Spacewatch MPC 26055
1995 10 15.36531 01 29 24.30 +09 31 56.1   691 – Steward Observatory, Kitt Peak-Spacewatch MPC 26055
1995 10 17.22452 01 27 11.13 +09 39 33.1   691 – Steward Observatory, Kitt Peak-Spacewatch MPC 26055
1995 10 17.24563 01 27 09.55 +09 39 38.3 18.1 V 691 – Steward Observatory, Kitt Peak-Spacewatch MPC 26055
1995 10 17.26680 01 27 07.97 +09 39 43.5   691 – Steward Observatory, Kitt Peak-Spacewatch MPC 26055
1995 10 22.29858 01 21 09.60 +09 59 50.3 18.5 V 691 – Steward Observatory, Kitt Peak-Spacewatch MPS 32246
1995 10 22.32189 01 21 07.86 +09 59 55.1 18.7 V 691 – Steward Observatory, Kitt Peak-Spacewatch MPS 32246
1995 10 22.34366 01 21 06.31 +10 00 00.9 19.5 V 691 – Steward Observatory, Kitt Peak-Spacewatch MPS 32246
1995 10 24.24397 01 18 54.66 +10 07 27.4 19.2 V 691 – Steward Observatory, Kitt Peak-Spacewatch MPS 32246
1995 10 24.26526 01 18 53.12 +10 07 32.4 19.5 V 691 – Steward Observatory, Kitt Peak-Spacewatch MPS 32246
1995 10 24.28740 01 18 51.51 +10 07 37.5 20.5 V 691 – Steward Observatory, Kitt Peak-Spacewatch MPS 32246
1995 10 28.36722 01 14 19.40 +10 23 31.5 19.3 V 691 – Steward Observatory, Kitt Peak-Spacewatch MPS 13482
1995 10 28.38835 01 14 18.02 +10 23 36.1   691 – Steward Observatory, Kitt Peak-Spacewatch MPS 13482
1995 10 28.40938 01 14 16.62 +10 23 41.2   691 – Steward Observatory, Kitt Peak-Spacewatch MPS 13482
1999 10 07.36238 01 51 41.89 +11 11 36.5 18.5   704 – Lincoln Laboratory ETS, New Mexico MPS 13843
1999 10 07.38379 01 51 40.37 +11 11 43.3 19.0   704 – Lincoln Laboratory ETS, New Mexico MPS 13843
1999 10 07.39449 01 51 39.76 +11 11 45.8 19.1   704 – Lincoln Laboratory ETS, New Mexico MPS 13843
1999 10 09.28822 01 49 34.61 +11 20 56.5 18.4 R 703 – Catalina Sky Survey MPS 13843
1999 10 09.30021 01 49 33.82 +11 21 00.0 18.7 R 703 – Catalina Sky Survey MPS 13843
1999 10 09.31218 01 49 33.01 +11 21 03.2 18.9 R 703 – Catalina Sky Survey MPS 13843
1999 10 09.32410 01 49 32.12 +11 21 07.7 18.6 R 703 – Catalina Sky Survey MPS 13843
1999 10 10.27792 01 48 27.56 +11 25 37.4 19.2   704 – Lincoln Laboratory ETS, New Mexico MPS 13843
1999 10 10.29366 01 48 26.45 +11 25 41.6 19.0   704 – Lincoln Laboratory ETS, New Mexico MPS 13843
1999 10 10.30942 01 48 25.32 +11 25 45.9 19.1   704 – Lincoln Laboratory ETS, New Mexico MPS 13843
1999 10 10.32517 01 48 24.21 +11 25 50.6 19.4   704 – Lincoln Laboratory ETS, New Mexico MPS 13843
1999 10 11.38845 01 47 10.86 +11 30 47.2 18.2 V 691 – Steward Observatory, Kitt Peak-Spacewatch MPS 13843
1999 10 11.41023 01 47 09.29 +11 30 53.0 18.2 V 691 – Steward Observatory, Kitt Peak-Spacewatch MPS 13843
1999 10 11.43383 01 47 07.60 +11 30 59.4 18.3 V 691 – Steward Observatory, Kitt Peak-Spacewatch MPS 13843
1999 10 15.40891 01 42 26.92 +11 48 44.8 18.7   704 – Lincoln Laboratory ETS, New Mexico MPS 13843
1999 10 15.42440 01 42 25.76 +11 48 49.4 19.4   704 – Lincoln Laboratory ETS, New Mexico MPS 13843
1999 10 15.43970 01 42 24.59 +11 48 53.1 19.6   704 – Lincoln Laboratory ETS, New Mexico MPS 13843
1999 10 15.45505 01 42 23.42 +11 48 56.9 19.9   704 – Lincoln Laboratory ETS, New Mexico MPS 13843
1999 10 15.47040 01 42 22.37 +11 49 00.0 19.4   704 – Lincoln Laboratory ETS, New Mexico MPS 13843
1999 10 20.18169 01 36 42.86 +12 08 43.9 18.8   704 – Lincoln Laboratory ETS, New Mexico MPS 13843
1999 10 20.19726 01 36 41.68 +12 08 46.8 19.1   704 – Lincoln Laboratory ETS, New Mexico MPS 13843
1999 10 20.21288 01 36 40.56 +12 08 50.7 19.1   704 – Lincoln Laboratory ETS, New Mexico MPS 13843
1999 10 20.22845 01 36 39.46 +12 08 54.4 19.3   704 – Lincoln Laboratory ETS, New Mexico MPS 13843
1999 10 20.24399 01 36 38.27 +12 08 58.4 19.4   704 – Lincoln Laboratory ETS, New Mexico MPS 13843
1999 11 04.24297 01 19 46.76 +13 04 56.1 19.2   704 – Lincoln Laboratory ETS, New Mexico MPS 13843
1999 11 04.25945 01 19 45.75 +13 04 59.6 19.3   704 – Lincoln Laboratory ETS, New Mexico MPS 13843
1999 11 04.27602 01 19 44.72 +13 05 03.7 18.9   704 – Lincoln Laboratory ETS, New Mexico MPS 13843
1999 11 04.29290 01 19 43.67 +13 05 06.5 19.5   704 – Lincoln Laboratory ETS, New Mexico MPS 13843
1999 11 04.30950 01 19 42.66 +13 05 11.0 19.4   704 – Lincoln Laboratory ETS, New Mexico MPS 13843
2003 09 03.48977 02 21 44.54 +09 47 22.5 20.7   608 – Haleakala-AMOS MPS 83925
2003 09 03.50029 02 21 44.64 +09 47 28.3 20.5   608 – Haleakala-AMOS MPS 83925
2003 09 03.51086 02 21 44.74 +09 47 32.7 21.3   608 – Haleakala-AMOS MPS 83925
2003 09 19.12045 02 19 41.41 +11 43 17.1 19.2 R 599 – Campo Imperatore-CINEOS MPS 84453
2003 09 19.13096 02 19 41.15 +11 43 21.8 18.8 R 599 – Campo Imperatore-CINEOS MPS 84453
2003 09 19.14140 02 19 40.84 +11 43 25.9 18.4 R 599 – Campo Imperatore-CINEOS MPS 84453
2003 09 19.15161 02 19 40.57 +11 43 31.3 18.9 R 599 – Campo Imperatore-CINEOS MPS 84453
2003 09 20.37091 02 19 08.12 +11 51 57.4 19.2 R 699 – Lowell Observatory-LONEOS MPS 85024
2003 09 20.37848 02 19 08.06 +11 51 57.9 19.2 R 699 – Lowell Observatory-LONEOS MPS 85024
2003 09 20.38118 02 19 07.85 +11 52 00.9 19.4   704 – Lincoln Laboratory ETS, New Mexico MPS 85024
2003 09 20.38431 02 19 07.93 +11 52 01.1   699 – Lowell Observatory-LONEOS MPS 85024
2003 09 20.39183 02 19 07.62 +11 52 03.2   699 – Lowell Observatory-LONEOS MPS 85024
2003 09 20.39356 02 19 07.48 +11 52 05.7 19.2   704 – Lincoln Laboratory ETS, New Mexico MPS 85024
2003 09 20.39764 02 19 07.47 +11 52 07.5   699 – Lowell Observatory-LONEOS MPS 85024
2003 09 20.40519 02 19 07.15 +11 52 09.3   699 – Lowell Observatory-LONEOS MPS 85024
2003 09 20.40567 02 19 07.11 +11 52 10.5 19.6   704 – Lincoln Laboratory ETS, New Mexico MPS 85024
2003 09 20.41100 02 19 06.95 +11 52 11.7   699 – Lowell Observatory-LONEOS MPS 85024
2003 09 20.41848 02 19 06.75 +11 52 14.7   699 – Lowell Observatory-LONEOS MPS 85024
2003 09 26.30555 02 15 42.28 +12 31 16.1 20.2   704 – Lincoln Laboratory ETS, New Mexico MPS 86043
2003 09 26.31819 02 15 41.58 +12 31 22.8 19.5   704 – Lincoln Laboratory ETS, New Mexico MPS 86043
2003 09 26.33089 02 15 41.15 +12 31 27.4 19.0   704 – Lincoln Laboratory ETS, New Mexico MPS 86043
2003 09 26.34364 02 15 40.54 +12 31 31.3 19.4   704 – Lincoln Laboratory ETS, New Mexico MPS 86043
2003 09 27.41962 02 14 54.77 +12 38 21.0 20.1 V 691 – Steward Observatory, Kitt Peak-Spacewatch MPS 86043
2003 09 27.44647 02 14 53.53 +12 38 31.2 19.5 V 691 – Steward Observatory, Kitt Peak-Spacewatch MPS 86043
2003 09 27.48087 02 14 51.94 +12 38 44.1 19.3 V 691 – Steward Observatory, Kitt Peak-Spacewatch MPS 86043
2003 09 29.29322 02 13 29.92 +12 50 01.0 18.9   704 – Lincoln Laboratory ETS, New Mexico MPS 86043
2003 09 29.30762 02 13 29.21 +12 50 06.6 19.0   704 – Lincoln Laboratory ETS, New Mexico MPS 86043
2003 09 29.32075 02 13 28.58 +12 50 11.2 18.8   704 – Lincoln Laboratory ETS, New Mexico MPS 86043
2003 09 29.33400 02 13 27.88 +12 50 16.2 18.7   704 – Lincoln Laboratory ETS, New Mexico MPS 86043
2003 09 29.34735 02 13 27.24 +12 50 20.7 19.1   704 – Lincoln Laboratory ETS, New Mexico MPS 86043
2003 10 16.36527 01 56 05.96 +14 21 52.6 19.0 V 691 – Steward Observatory, Kitt Peak-Spacewatch MPS 87270
2003 10 16.39451 01 56 03.80 +14 22 00.4 18.7 V 691 – Steward Observatory, Kitt Peak-Spacewatch MPS 87270
2003 10 16.44620 01 55 59.98 +14 22 14.3 18.9 V 691 – Steward Observatory, Kitt Peak-Spacewatch MPS 87270
2003 10 21.21824 01 50 15.46 +14 42 50.2 18.4 R 699 – Lowell Observatory-LONEOS MPS 87662
2003 10 21.23816 01 50 13.99 +14 42 55.0   699 – Lowell Observatory-LONEOS MPS 87662
2003 10 21.25817 01 50 12.40 +14 42 59.8   699 – Lowell Observatory-LONEOS MPS 87662
2003 10 21.27820 01 50 10.88 +14 43 05.2   699 – Lowell Observatory-LONEOS MPS 87662
2003 10 21.27891 01 50 10.73 +14 43 06.1 18.7   704 – Lincoln Laboratory ETS, New Mexico MPS 87662
2003 10 21.29175 01 50 09.83 +14 43 09.0 19.1   704 – Lincoln Laboratory ETS, New Mexico MPS 87662
2003 10 21.30439 01 50 08.89 +14 43 12.6 19.1   704 – Lincoln Laboratory ETS, New Mexico MPS 87663
